Findlay, OH

9:32 PM EDT on October 13, 2019 (GMT -0400)
Findlay

Weather History for KFDY - July, 2019

Change the Weather History Date:

Wednesday, July 17, 2019

  Actual Average Record
Temperature  
Mean Temperature 81 °F -  
Max Temperature 91 °F 83 °F 98 °F (2012)
Min Temperature 73 °F 62 °F 50 °F (2014)
Cooling Degree Days 16    
Growing Degree Days 31 (Base 50)    
Moisture  
Dew Point 73 °F    
Average Humidity 81    
Maximum Humidity 91    
Minimum Humidity 57    
Precipitation  
Precipitation 0.46 in - - ()
Sea Level Pressure  
Sea Level Pressure 29.88 in    
Wind  
Wind Speed 5 mph (SSE)    
Max Wind Speed 15 mph    
Max Gust Speed 18 mph    
Visibility 9 miles    
Events Rain    
Averages and records for this station are not official NWS values.
T = Trace of Precipitation, MM = Missing Value Source: NWS Daily Summary

Daily Weather History Graph

Daily Weather History Graph

Search for Another Location

Airport or City:

Astronomy

Jul. 17, 2019 Rise Set
Actual Time 6:16 AM EDT 9:04 PM EDT
Civil Twilight 5:44 AM EDT 9:36 PM EDT
Nautical Twilight 5:03 AM EDT 10:17 PM EDT
Astronomical Twilight 4:16 AM EDT 11:03 PM EDT
Moon 9:52 PM EDT (7/17) 6:48 AM EDT (7/17)
Length of Visible Light 15h 52m
Length of Day
14h 47m
Waxing Gibbous, 99% of the Moon is Illuminated
Jul 17
Waxing Gibbous
Jul 24
Last Quarter
Jul 31
New
Aug 7
First Quarter
Aug 15
Full

Hourly Weather History & Observations

Time (EDT) Temp. Heat Index Dew Point Humidity Pressure Visibility Wind Dir Wind Speed Gust Speed Precip Events Conditions
12:53 AM 73.9 °F - 71.1 °F 91% 29.89 in 7.0 mi SE 6.9 mph - 0.09 in Rain Light Rain
1:53 AM 73.9 °F - 71.1 °F 91% 29.88 in 10.0 mi ESE 6.9 mph - 0.08 in Rain Light Rain
2:53 AM 75.0 °F - 71.1 °F 87% 29.87 in 10.0 mi SSE 5.8 mph - 0.00 in   Mostly Cloudy
3:53 AM 73.9 °F - 71.1 °F 91% 29.85 in 10.0 mi Calm Calm - 0.00 in Rain Light Rain
4:53 AM 73.9 °F - 71.1 °F 91% 29.85 in 10.0 mi South 4.6 mph - 0.00 in Rain Light Rain
5:06 AM 75.0 °F - 72.0 °F 90% 29.87 in 10.0 mi South 3.5 mph - 0.00 in Rain Light Rain
5:38 AM 75.0 °F - 71.1 °F 87% 29.87 in 10.0 mi South 8.1 mph - 0.01 in   Overcast
5:53 AM 75.0 °F - 71.1 °F 87% 29.85 in 10.0 mi SSW 6.9 mph - 0.01 in   Overcast
6:05 AM 75.0 °F - 71.1 °F 87% 29.88 in 10.0 mi SSW 4.6 mph - N/A   Overcast
6:53 AM 75.0 °F - 71.1 °F 87% 29.86 in 6.0 mi South 3.5 mph - 0.01 in Rain Rain
7:04 AM 75.0 °F - 71.1 °F 87% 29.88 in 10.0 mi South 3.5 mph - 0.00 in Rain Light Rain
7:23 AM 75.0 °F - 72.0 °F 90% 29.88 in 10.0 mi South 3.5 mph - 0.00 in Rain Light Rain
7:30 AM 75.0 °F - 72.0 °F 90% 29.88 in 10.0 mi South 4.6 mph - 0.00 in   Overcast
7:53 AM 75.0 °F - 72.0 °F 90% 29.86 in 10.0 mi Calm Calm - 0.00 in   Overcast
8:00 AM 75.0 °F - 72.0 °F 90% 29.89 in 10.0 mi South 3.5 mph - N/A   Overcast
8:28 AM 75.9 °F - 72.0 °F 87% 29.89 in 10.0 mi South 3.5 mph - 0.00 in   Overcast
8:53 AM 75.9 °F - 72.0 °F 87% 29.86 in 10.0 mi SSE 3.5 mph - 0.00 in   Overcast
9:16 AM 77.0 °F - 72.0 °F 84% 29.89 in 10.0 mi SE 3.5 mph - N/A   Scattered Clouds
9:32 AM 77.0 °F - 73.0 °F 88% 29.88 in 10.0 mi ESE 4.6 mph - N/A   Mostly Cloudy
9:53 AM 79.0 °F - 73.0 °F 82% 29.87 in 10.0 mi ESE 4.6 mph - N/A   Overcast
10:53 AM 79.0 °F - 73.0 °F 82% 29.87 in 10.0 mi WSW 3.5 mph - N/A   Overcast
11:03 AM 79.0 °F - 72.0 °F 79% 29.89 in 10.0 mi Calm Calm - N/A   Overcast
11:31 AM 82.0 °F 87.4 °F 73.0 °F 74% 29.90 in 10.0 mi North 3.5 mph - N/A   Mostly Cloudy
11:53 AM 82.0 °F 86.7 °F 72.0 °F 71% 29.87 in 10.0 mi NNE 6.9 mph - N/A   Mostly Cloudy
12:53 PM 86.0 °F 93.0 °F 73.0 °F 65% 29.87 in 10.0 mi Variable 4.6 mph - N/A   Scattered Clouds
1:17 PM 84.0 °F 90.2 °F 73.0 °F 69% 29.91 in 10.0 mi NNW 9.2 mph - N/A   Overcast
1:31 PM 86.0 °F 93.8 °F 73.9 °F 67% 29.90 in 10.0 mi WNW 8.1 mph - N/A   Scattered Clouds
1:53 PM 86.0 °F 93.0 °F 73.0 °F 65% 29.87 in 10.0 mi NW 5.8 mph - N/A   Partly Cloudy
2:53 PM 87.1 °F 93.6 °F 72.0 °F 61% 29.86 in 10.0 mi North 8.1 mph - N/A   Scattered Clouds
3:53 PM 89.1 °F 96.0 °F 72.0 °F 57% 29.86 in 10.0 mi NNW 9.2 mph - N/A   Scattered Clouds
4:53 PM 89.1 °F 96.0 °F 72.0 °F 57% 29.85 in 10.0 mi North 10.4 mph - N/A   Mostly Cloudy
5:53 PM 87.1 °F 95.4 °F 73.9 °F 65% 29.85 in 10.0 mi ENE 15.0 mph 18.4 mph 0.00 in Rain Light Rain
6:09 PM 80.1 °F 84.5 °F 73.9 °F 81% 29.90 in 6.0 mi East 5.8 mph - 0.04 in Rain Light Rain
6:14 PM 81.0 °F 86.2 °F 73.9 °F 79% 29.89 in 1.5 mi NNW 5.8 mph - 0.17 in Rain Heavy Rain
6:27 PM 81.0 °F 86.2 °F 73.9 °F 79% 29.89 in 4.0 mi SE 5.8 mph - 0.27 in Rain Light Rain
6:53 PM 82.9 °F 89.4 °F 73.9 °F 74% 29.86 in 10.0 mi Calm Calm - 0.27 in   Partly Cloudy
7:53 PM 84.0 °F 91.9 °F 75.0 °F 74% 29.86 in 10.0 mi Calm Calm - N/A   Clear
8:53 PM 82.0 °F 89.4 °F 75.9 °F 82% 29.88 in 10.0 mi Calm Calm - N/A   Clear
9:53 PM 80.1 °F 85.4 °F 75.9 °F 87% 29.89 in 10.0 mi Calm Calm - N/A   Clear
10:53 PM 80.1 °F 85.1 °F 75.0 °F 85% 29.91 in 10.0 mi Calm Calm - N/A   Overcast
11:53 PM 79.0 °F - 75.0 °F 88% 29.91 in 10.0 mi South 3.5 mph - N/A   Overcast